<?xml version="1.0" encoding="UTF-8"?>
<gpx
version="1.1"
creator="Kashmir3D 9.350 - http://www.kashmir3d.com"
xmlns:xsi="http://www.w3.org/2001/XMLSchema-instance"
xmlns="http://www.topografix.com/GPX/1/1"
xmlns:kashmir3d="http://www.kashmir3d.com/namespace/kashmir3d"
xsi:schemaLocation="http://www.topografix.com/GPX/1/1 http://www.topografix.com/GPX/1/1/gpx.xsd
	http://www.kashmir3d.com/namespace/kashmir3d http://www.kashmir3d.com/namespace/kashmir3d.xsd">
<trk>
 <name>高草山.KML(高草山)</name>
 <number>1</number>
 <extensions>
 <kashmir3d:line_color>0000ff</kashmir3d:line_color>
 <kashmir3d:line_size>3</kashmir3d:line_size>
 <kashmir3d:line_style>1</kashmir3d:line_style>
 <kashmir3d:icon>901001</kashmir3d:icon>
 </extensions>
<trkseg>
<trkpt lat="34.900176" lon="138.332201">
 <ele>19.6</ele>
 <time>2020-03-24T16:34:50Z</time>
</trkpt>
<trkpt lat="34.900279" lon="138.331857">
 <ele>20.5</ele>
 <time>2020-03-24T16:34:50Z</time>
</trkpt>
<trkpt lat="34.900391" lon="138.331610">
 <ele>20.8</ele>
 <time>2020-03-24T16:34:50Z</time>
</trkpt>
<trkpt lat="34.900416" lon="138.331417">
 <ele>21.3</ele>
 <time>2020-03-24T16:34:50Z</time>
</trkpt>
<trkpt lat="34.900451" lon="138.331063">
 <ele>21.9</ele>
 <time>2020-03-24T16:34:50Z</time>
</trkpt>
<trkpt lat="34.900502" lon="138.330774">
 <ele>23.5</ele>
 <time>2020-03-24T16:34:50Z</time>
</trkpt>
<trkpt lat="34.900640" lon="138.330505">
 <ele>23.6</ele>
 <time>2020-03-24T16:34:50Z</time>
</trkpt>
<trkpt lat="34.900906" lon="138.330237">
 <ele>23.8</ele>
 <time>2020-03-24T16:34:50Z</time>
</trkpt>
<trkpt lat="34.901197" lon="138.329990">
 <ele>24.9</ele>
 <time>2020-03-24T16:34:50Z</time>
</trkpt>
<trkpt lat="34.901403" lon="138.329851">
 <ele>25.7</ele>
 <time>2020-03-24T16:34:50Z</time>
</trkpt>
<trkpt lat="34.901764" lon="138.329754">
 <ele>27.6</ele>
 <time>2020-03-24T16:34:51Z</time>
</trkpt>
<trkpt lat="34.901670" lon="138.329583">
 <ele>28.1</ele>
 <time>2020-03-24T16:34:51Z</time>
</trkpt>
<trkpt lat="34.901352" lon="138.329390">
 <ele>27.9</ele>
 <time>2020-03-24T16:34:51Z</time>
</trkpt>
<trkpt lat="34.900854" lon="138.329164">
 <ele>29.1</ele>
 <time>2020-03-24T16:34:51Z</time>
</trkpt>
<trkpt lat="34.900296" lon="138.329036">
 <ele>31.6</ele>
 <time>2020-03-24T16:34:51Z</time>
</trkpt>
<trkpt lat="34.900013" lon="138.328950">
 <ele>33.2</ele>
 <time>2020-03-24T16:34:51Z</time>
</trkpt>
<trkpt lat="34.899807" lon="138.328853">
 <ele>34.6</ele>
 <time>2020-03-24T16:34:51Z</time>
</trkpt>
<trkpt lat="34.899472" lon="138.328767">
 <ele>37.3</ele>
 <time>2020-03-24T16:34:51Z</time>
</trkpt>
<trkpt lat="34.899189" lon="138.328746">
 <ele>40.5</ele>
 <time>2020-03-24T16:34:51Z</time>
</trkpt>
<trkpt lat="34.898811" lon="138.328724">
 <ele>47.1</ele>
 <time>2020-03-24T16:34:51Z</time>
</trkpt>
<trkpt lat="34.898597" lon="138.328778">
 <ele>50.3</ele>
 <time>2020-03-24T16:34:52Z</time>
</trkpt>
<trkpt lat="34.898434" lon="138.328778">
 <ele>52.9</ele>
 <time>2020-03-24T16:34:52Z</time>
</trkpt>
<trkpt lat="34.898185" lon="138.328971">
 <ele>59.1</ele>
 <time>2020-03-24T16:34:52Z</time>
</trkpt>
<trkpt lat="34.898030" lon="138.328971">
 <ele>60.4</ele>
 <time>2020-03-24T16:34:52Z</time>
</trkpt>
<trkpt lat="34.897919" lon="138.328639">
 <ele>64.5</ele>
 <time>2020-03-24T16:34:52Z</time>
</trkpt>
<trkpt lat="34.897747" lon="138.328199">
 <ele>64.2</ele>
 <time>2020-03-24T16:34:52Z</time>
</trkpt>
<trkpt lat="34.897944" lon="138.327930">
 <ele>66</ele>
 <time>2020-03-24T16:34:52Z</time>
</trkpt>
<trkpt lat="34.898056" lon="138.327909">
 <ele>68.4</ele>
 <time>2020-03-24T16:34:52Z</time>
</trkpt>
<trkpt lat="34.898219" lon="138.328199">
 <ele>72.7</ele>
 <time>2020-03-24T16:34:52Z</time>
</trkpt>
<trkpt lat="34.898485" lon="138.328124">
 <ele>76.7</ele>
 <time>2020-03-24T16:34:53Z</time>
</trkpt>
<trkpt lat="34.898665" lon="138.328059">
 <ele>79.8</ele>
 <time>2020-03-24T16:34:53Z</time>
</trkpt>
<trkpt lat="34.898811" lon="138.327866">
 <ele>82.6</ele>
 <time>2020-03-24T16:34:53Z</time>
</trkpt>
<trkpt lat="34.898906" lon="138.327641">
 <ele>84.8</ele>
 <time>2020-03-24T16:34:53Z</time>
</trkpt>
<trkpt lat="34.898966" lon="138.327351">
 <ele>88</ele>
 <time>2020-03-24T16:34:53Z</time>
</trkpt>
<trkpt lat="34.898949" lon="138.327018">
 <ele>92.1</ele>
 <time>2020-03-24T16:34:53Z</time>
</trkpt>
<trkpt lat="34.898897" lon="138.326761">
 <ele>95.6</ele>
 <time>2020-03-24T16:34:53Z</time>
</trkpt>
<trkpt lat="34.898949" lon="138.326568">
 <ele>99.3</ele>
 <time>2020-03-24T16:34:53Z</time>
</trkpt>
<trkpt lat="34.899172" lon="138.326450">
 <ele>102.9</ele>
 <time>2020-03-24T16:34:53Z</time>
</trkpt>
<trkpt lat="34.899361" lon="138.326471">
 <ele>104</ele>
 <time>2020-03-24T16:34:54Z</time>
</trkpt>
<trkpt lat="34.899421" lon="138.326396">
 <ele>110.4</ele>
 <time>2020-03-24T16:34:54Z</time>
</trkpt>
<trkpt lat="34.899361" lon="138.326332">
 <ele>107.6</ele>
 <time>2020-03-24T16:34:54Z</time>
</trkpt>
<trkpt lat="34.899000" lon="138.326321">
 <ele>111.8</ele>
 <time>2020-03-24T16:34:54Z</time>
</trkpt>
<trkpt lat="34.898734" lon="138.326321">
 <ele>115.1</ele>
 <time>2020-03-24T16:34:54Z</time>
</trkpt>
<trkpt lat="34.898605" lon="138.326278">
 <ele>116.7</ele>
 <time>2020-03-24T16:34:54Z</time>
</trkpt>
<trkpt lat="34.898502" lon="138.326074">
 <ele>119.9</ele>
 <time>2020-03-24T16:34:54Z</time>
</trkpt>
<trkpt lat="34.898477" lon="138.325946">
 <ele>120.5</ele>
 <time>2020-03-24T16:34:54Z</time>
</trkpt>
<trkpt lat="34.898520" lon="138.325720">
 <ele>122.5</ele>
 <time>2020-03-24T16:34:54Z</time>
</trkpt>
<trkpt lat="34.898614" lon="138.325592">
 <ele>126.5</ele>
 <time>2020-03-24T16:34:54Z</time>
</trkpt>
<trkpt lat="34.898657" lon="138.325688">
 <ele>126.5</ele>
 <time>2020-03-24T16:34:55Z</time>
</trkpt>
<trkpt lat="34.898683" lon="138.325860">
 <ele>128.9</ele>
 <time>2020-03-24T16:34:55Z</time>
</trkpt>
<trkpt lat="34.898820" lon="138.325785">
 <ele>131.7</ele>
 <time>2020-03-24T16:34:55Z</time>
</trkpt>
<trkpt lat="34.898966" lon="138.325731">
 <ele>134.6</ele>
 <time>2020-03-24T16:34:55Z</time>
</trkpt>
<trkpt lat="34.899120" lon="138.325849">
 <ele>137.6</ele>
 <time>2020-03-24T16:34:55Z</time>
</trkpt>
<trkpt lat="34.899258" lon="138.325924">
 <ele>138.8</ele>
 <time>2020-03-24T16:34:55Z</time>
</trkpt>
<trkpt lat="34.899361" lon="138.325860">
 <ele>141.8</ele>
 <time>2020-03-24T16:34:55Z</time>
</trkpt>
<trkpt lat="34.899189" lon="138.325677">
 <ele>147.8</ele>
 <time>2020-03-24T16:34:55Z</time>
</trkpt>
<trkpt lat="34.899017" lon="138.325441">
 <ele>151.3</ele>
 <time>2020-03-24T16:34:55Z</time>
</trkpt>
<trkpt lat="34.898940" lon="138.325302">
 <ele>153.1</ele>
 <time>2020-03-24T16:34:56Z</time>
</trkpt>
<trkpt lat="34.898992" lon="138.325184">
 <ele>156.2</ele>
 <time>2020-03-24T16:34:56Z</time>
</trkpt>
<trkpt lat="34.899077" lon="138.325238">
 <ele>158.1</ele>
 <time>2020-03-24T16:34:56Z</time>
</trkpt>
<trkpt lat="34.899112" lon="138.325366">
 <ele>159.4</ele>
 <time>2020-03-24T16:34:56Z</time>
</trkpt>
<trkpt lat="34.899369" lon="138.325527">
 <ele>163.4</ele>
 <time>2020-03-24T16:34:56Z</time>
</trkpt>
<trkpt lat="34.899653" lon="138.325602">
 <ele>164.9</ele>
 <time>2020-03-24T16:34:56Z</time>
</trkpt>
<trkpt lat="34.899756" lon="138.325527">
 <ele>167.7</ele>
 <time>2020-03-24T16:34:56Z</time>
</trkpt>
<trkpt lat="34.899687" lon="138.325420">
 <ele>170</ele>
 <time>2020-03-24T16:34:56Z</time>
</trkpt>
<trkpt lat="34.899498" lon="138.325313">
 <ele>171.7</ele>
 <time>2020-03-24T16:34:56Z</time>
</trkpt>
<trkpt lat="34.899498" lon="138.325066">
 <ele>174.5</ele>
 <time>2020-03-24T16:34:56Z</time>
</trkpt>
<trkpt lat="34.899455" lon="138.324894">
 <ele>176</ele>
 <time>2020-03-24T16:34:57Z</time>
</trkpt>
<trkpt lat="34.899361" lon="138.324712">
 <ele>177.6</ele>
 <time>2020-03-24T16:34:57Z</time>
</trkpt>
<trkpt lat="34.899215" lon="138.324390">
 <ele>181.3</ele>
 <time>2020-03-24T16:34:57Z</time>
</trkpt>
<trkpt lat="34.898906" lon="138.324143">
 <ele>181.4</ele>
 <time>2020-03-24T16:34:57Z</time>
</trkpt>
<trkpt lat="34.898717" lon="138.324036">
 <ele>183</ele>
 <time>2020-03-24T16:34:57Z</time>
</trkpt>
<trkpt lat="34.898477" lon="138.324068">
 <ele>185.5</ele>
 <time>2020-03-24T16:34:57Z</time>
</trkpt>
<trkpt lat="34.898314" lon="138.324090">
 <ele>187.4</ele>
 <time>2020-03-24T16:34:57Z</time>
</trkpt>
<trkpt lat="34.898013" lon="138.323811">
 <ele>189.2</ele>
 <time>2020-03-24T16:34:57Z</time>
</trkpt>
<trkpt lat="34.897799" lon="138.323467">
 <ele>192.2</ele>
 <time>2020-03-24T16:34:57Z</time>
</trkpt>
<trkpt lat="34.897653" lon="138.323274">
 <ele>194.3</ele>
 <time>2020-03-24T16:34:58Z</time>
</trkpt>
<trkpt lat="34.897764" lon="138.323263">
 <ele>198.3</ele>
 <time>2020-03-24T16:34:58Z</time>
</trkpt>
<trkpt lat="34.897962" lon="138.323521">
 <ele>199.6</ele>
 <time>2020-03-24T16:34:58Z</time>
</trkpt>
<trkpt lat="34.898099" lon="138.323671">
 <ele>201.7</ele>
 <time>2020-03-24T16:34:58Z</time>
</trkpt>
<trkpt lat="34.898236" lon="138.323682">
 <ele>204.5</ele>
 <time>2020-03-24T16:34:58Z</time>
</trkpt>
<trkpt lat="34.898271" lon="138.323585">
 <ele>205.5</ele>
 <time>2020-03-24T16:34:58Z</time>
</trkpt>
<trkpt lat="34.898142" lon="138.323521">
 <ele>207.1</ele>
 <time>2020-03-24T16:34:58Z</time>
</trkpt>
<trkpt lat="34.898030" lon="138.323381">
 <ele>207.4</ele>
 <time>2020-03-24T16:34:58Z</time>
</trkpt>
<trkpt lat="34.897944" lon="138.323113">
 <ele>211.8</ele>
 <time>2020-03-24T16:34:58Z</time>
</trkpt>
<trkpt lat="34.897910" lon="138.322931">
 <ele>214.2</ele>
 <time>2020-03-24T16:34:58Z</time>
</trkpt>
<trkpt lat="34.898030" lon="138.322748">
 <ele>215.8</ele>
 <time>2020-03-24T16:34:59Z</time>
</trkpt>
<trkpt lat="34.898236" lon="138.322684">
 <ele>220.6</ele>
 <time>2020-03-24T16:34:59Z</time>
</trkpt>
<trkpt lat="34.898502" lon="138.322512">
 <ele>225.2</ele>
 <time>2020-03-24T16:34:59Z</time>
</trkpt>
<trkpt lat="34.898717" lon="138.322362">
 <ele>225.8</ele>
 <time>2020-03-24T16:34:59Z</time>
</trkpt>
<trkpt lat="34.898743" lon="138.322244">
 <ele>224.8</ele>
 <time>2020-03-24T16:34:59Z</time>
</trkpt>
<trkpt lat="34.898674" lon="138.322137">
 <ele>227</ele>
 <time>2020-03-24T16:34:59Z</time>
</trkpt>
<trkpt lat="34.898417" lon="138.322072">
 <ele>226.9</ele>
 <time>2020-03-24T16:34:59Z</time>
</trkpt>
<trkpt lat="34.898228" lon="138.321987">
 <ele>227.2</ele>
 <time>2020-03-24T16:34:59Z</time>
</trkpt>
<trkpt lat="34.898108" lon="138.321836">
 <ele>225.6</ele>
 <time>2020-03-24T16:34:59Z</time>
</trkpt>
<trkpt lat="34.898039" lon="138.321708">
 <ele>226.8</ele>
 <time>2020-03-24T16:35:00Z</time>
</trkpt>
<trkpt lat="34.898047" lon="138.321611">
 <ele>227.1</ele>
 <time>2020-03-24T16:35:00Z</time>
</trkpt>
<trkpt lat="34.898211" lon="138.321493">
 <ele>228.5</ele>
 <time>2020-03-24T16:35:00Z</time>
</trkpt>
<trkpt lat="34.898339" lon="138.321236">
 <ele>229.5</ele>
 <time>2020-03-24T16:35:00Z</time>
</trkpt>
<trkpt lat="34.898442" lon="138.320860">
 <ele>230.8</ele>
 <time>2020-03-24T16:35:00Z</time>
</trkpt>
<trkpt lat="34.898562" lon="138.320678">
 <ele>231.7</ele>
 <time>2020-03-24T16:35:00Z</time>
</trkpt>
<trkpt lat="34.898537" lon="138.320474">
 <ele>232.9</ele>
 <time>2020-03-24T16:35:00Z</time>
</trkpt>
<trkpt lat="34.898485" lon="138.320259">
 <ele>233.3</ele>
 <time>2020-03-24T16:35:00Z</time>
</trkpt>
<trkpt lat="34.898708" lon="138.320216">
 <ele>235.2</ele>
 <time>2020-03-24T16:35:00Z</time>
</trkpt>
<trkpt lat="34.898837" lon="138.320292">
 <ele>236.4</ele>
 <time>2020-03-24T16:35:00Z</time>
</trkpt>
<trkpt lat="34.898932" lon="138.320313">
 <ele>235.6</ele>
 <time>2020-03-24T16:35:01Z</time>
</trkpt>
<trkpt lat="34.899026" lon="138.320195">
 <ele>239.1</ele>
 <time>2020-03-24T16:35:01Z</time>
</trkpt>
<trkpt lat="34.899129" lon="138.320002">
 <ele>240.5</ele>
 <time>2020-03-24T16:35:01Z</time>
</trkpt>
<trkpt lat="34.899395" lon="138.319777">
 <ele>243.5</ele>
 <time>2020-03-24T16:35:01Z</time>
</trkpt>
<trkpt lat="34.899575" lon="138.319669">
 <ele>241.6</ele>
 <time>2020-03-24T16:35:01Z</time>
</trkpt>
<trkpt lat="34.899661" lon="138.319616">
 <ele>242.9</ele>
 <time>2020-03-24T16:35:01Z</time>
</trkpt>
<trkpt lat="34.899670" lon="138.319551">
 <ele>242.7</ele>
 <time>2020-03-24T16:35:01Z</time>
</trkpt>
<trkpt lat="34.899532" lon="138.319465">
 <ele>240.9</ele>
 <time>2020-03-24T16:35:01Z</time>
</trkpt>
<trkpt lat="34.899326" lon="138.319111">
 <ele>247.5</ele>
 <time>2020-03-24T16:35:01Z</time>
</trkpt>
<trkpt lat="34.899206" lon="138.318907">
 <ele>248.5</ele>
 <time>2020-03-24T16:35:02Z</time>
</trkpt>
<trkpt lat="34.899172" lon="138.318714">
 <ele>250.2</ele>
 <time>2020-03-24T16:35:02Z</time>
</trkpt>
<trkpt lat="34.899318" lon="138.318317">
 <ele>251.6</ele>
 <time>2020-03-24T16:35:02Z</time>
</trkpt>
<trkpt lat="34.899438" lon="138.318199">
 <ele>253</ele>
 <time>2020-03-24T16:35:02Z</time>
</trkpt>
<trkpt lat="34.899541" lon="138.318124">
 <ele>253.7</ele>
 <time>2020-03-24T16:35:02Z</time>
</trkpt>
<trkpt lat="34.899773" lon="138.318146">
 <ele>264.3</ele>
 <time>2020-03-24T16:35:02Z</time>
</trkpt>
<trkpt lat="34.899919" lon="138.318092">
 <ele>274.2</ele>
 <time>2020-03-24T16:35:02Z</time>
</trkpt>
<trkpt lat="34.899996" lon="138.318071">
 <ele>278.8</ele>
 <time>2020-03-24T16:35:02Z</time>
</trkpt>
<trkpt lat="34.900090" lon="138.318156">
 <ele>288.1</ele>
 <time>2020-03-24T16:35:02Z</time>
</trkpt>
<trkpt lat="34.900202" lon="138.318114">
 <ele>293.8</ele>
 <time>2020-03-24T16:35:03Z</time>
</trkpt>
<trkpt lat="34.900228" lon="138.318210">
 <ele>296.9</ele>
 <time>2020-03-24T16:35:03Z</time>
</trkpt>
<trkpt lat="34.900331" lon="138.318285">
 <ele>304.5</ele>
 <time>2020-03-24T16:35:03Z</time>
</trkpt>
<trkpt lat="34.900434" lon="138.318339">
 <ele>310.7</ele>
 <time>2020-03-24T16:35:03Z</time>
</trkpt>
<trkpt lat="34.900511" lon="138.318382">
 <ele>315.9</ele>
 <time>2020-03-24T16:35:03Z</time>
</trkpt>
<trkpt lat="34.900562" lon="138.318446">
 <ele>320.2</ele>
 <time>2020-03-24T16:35:03Z</time>
</trkpt>
<trkpt lat="34.900579" lon="138.318511">
 <ele>323.4</ele>
 <time>2020-03-24T16:35:03Z</time>
</trkpt>
<trkpt lat="34.900700" lon="138.318511">
 <ele>328</ele>
 <time>2020-03-24T16:35:03Z</time>
</trkpt>
<trkpt lat="34.900691" lon="138.318607">
 <ele>331.8</ele>
 <time>2020-03-24T16:35:03Z</time>
</trkpt>
<trkpt lat="34.900828" lon="138.318639">
 <ele>338.3</ele>
 <time>2020-03-24T16:35:03Z</time>
</trkpt>
<trkpt lat="34.901009" lon="138.318650">
 <ele>347.9</ele>
 <time>2020-03-24T16:35:04Z</time>
</trkpt>
<trkpt lat="34.901129" lon="138.318671">
 <ele>353.3</ele>
 <time>2020-03-24T16:35:04Z</time>
</trkpt>
<trkpt lat="34.901386" lon="138.318832">
 <ele>367.3</ele>
 <time>2020-03-24T16:35:04Z</time>
</trkpt>
<trkpt lat="34.901498" lon="138.318865">
 <ele>369</ele>
 <time>2020-03-24T16:35:04Z</time>
</trkpt>
<trkpt lat="34.901609" lon="138.318983">
 <ele>371.7</ele>
 <time>2020-03-24T16:35:04Z</time>
</trkpt>
<trkpt lat="34.901738" lon="138.319133">
 <ele>377.2</ele>
 <time>2020-03-24T16:35:04Z</time>
</trkpt>
<trkpt lat="34.901876" lon="138.319229">
 <ele>379.4</ele>
 <time>2020-03-24T16:35:04Z</time>
</trkpt>
<trkpt lat="34.902021" lon="138.319412">
 <ele>384.9</ele>
 <time>2020-03-24T16:35:04Z</time>
</trkpt>
<trkpt lat="34.902185" lon="138.319551">
 <ele>392.8</ele>
 <time>2020-03-24T16:35:04Z</time>
</trkpt>
<trkpt lat="34.902330" lon="138.319616">
 <ele>397.9</ele>
 <time>2020-03-24T16:35:05Z</time>
</trkpt>
<trkpt lat="34.902485" lon="138.319680">
 <ele>405.8</ele>
 <time>2020-03-24T16:35:05Z</time>
</trkpt>
<trkpt lat="34.902597" lon="138.319712">
 <ele>408.4</ele>
 <time>2020-03-24T16:35:05Z</time>
</trkpt>
<trkpt lat="34.902768" lon="138.319852">
 <ele>413.5</ele>
 <time>2020-03-24T16:35:05Z</time>
</trkpt>
<trkpt lat="34.902974" lon="138.319959">
 <ele>420.4</ele>
 <time>2020-03-24T16:35:05Z</time>
</trkpt>
<trkpt lat="34.903180" lon="138.320066">
 <ele>429.9</ele>
 <time>2020-03-24T16:35:05Z</time>
</trkpt>
<trkpt lat="34.903378" lon="138.320184">
 <ele>436.2</ele>
 <time>2020-03-24T16:35:05Z</time>
</trkpt>
<trkpt lat="34.903532" lon="138.320302">
 <ele>443.9</ele>
 <time>2020-03-24T16:35:05Z</time>
</trkpt>
<trkpt lat="34.903618" lon="138.320388">
 <ele>447.2</ele>
 <time>2020-03-24T16:35:05Z</time>
</trkpt>
<trkpt lat="34.903875" lon="138.320420">
 <ele>456.5</ele>
 <time>2020-03-24T16:35:05Z</time>
</trkpt>
<trkpt lat="34.904056" lon="138.320410">
 <ele>462.7</ele>
 <time>2020-03-24T16:35:06Z</time>
</trkpt>
<trkpt lat="34.904176" lon="138.320367">
 <ele>466.1</ele>
 <time>2020-03-24T16:35:06Z</time>
</trkpt>
<trkpt lat="34.904373" lon="138.320388">
 <ele>468.4</ele>
 <time>2020-03-24T16:35:06Z</time>
</trkpt>
<trkpt lat="34.904588" lon="138.320313">
 <ele>472.7</ele>
 <time>2020-03-24T16:35:06Z</time>
</trkpt>
<trkpt lat="34.904777" lon="138.320152">
 <ele>477.9</ele>
 <time>2020-03-24T16:35:06Z</time>
</trkpt>
<trkpt lat="34.904880" lon="138.319970">
 <ele>482.2</ele>
 <time>2020-03-24T16:35:06Z</time>
</trkpt>
<trkpt lat="34.904931" lon="138.319819">
 <ele>486.2</ele>
 <time>2020-03-24T16:35:06Z</time>
</trkpt>
<trkpt lat="34.905008" lon="138.319691">
 <ele>490.2</ele>
 <time>2020-03-24T16:35:06Z</time>
</trkpt>
<trkpt lat="34.905086" lon="138.319573">
 <ele>492.2</ele>
 <time>2020-03-24T16:35:07Z</time>
</trkpt>
<trkpt lat="34.905103" lon="138.319283">
 <ele>496.3</ele>
 <time>2020-03-24T16:35:07Z</time>
</trkpt>
<trkpt lat="34.905154" lon="138.319068">
 <ele>501.2</ele>
 <time>2020-03-24T16:35:07Z</time>
</trkpt>
<trkpt lat="34.905103" lon="138.319283">
 <ele>496.3</ele>
 <time>2020-03-24T16:35:07Z</time>
</trkpt>
<trkpt lat="34.905086" lon="138.319573">
 <ele>492.2</ele>
 <time>2020-03-24T16:35:07Z</time>
</trkpt>
<trkpt lat="34.905008" lon="138.319691">
 <ele>490.2</ele>
 <time>2020-03-24T16:35:07Z</time>
</trkpt>
<trkpt lat="34.904931" lon="138.319819">
 <ele>486.2</ele>
 <time>2020-03-24T16:35:07Z</time>
</trkpt>
<trkpt lat="34.904880" lon="138.319970">
 <ele>482.2</ele>
 <time>2020-03-24T16:35:07Z</time>
</trkpt>
<trkpt lat="34.904777" lon="138.320152">
 <ele>477.9</ele>
 <time>2020-03-24T16:35:07Z</time>
</trkpt>
<trkpt lat="34.904588" lon="138.320313">
 <ele>472.7</ele>
 <time>2020-03-24T16:35:07Z</time>
</trkpt>
<trkpt lat="34.904373" lon="138.320388">
 <ele>468.4</ele>
 <time>2020-03-24T16:35:08Z</time>
</trkpt>
<trkpt lat="34.904176" lon="138.320367">
 <ele>466.1</ele>
 <time>2020-03-24T16:35:08Z</time>
</trkpt>
<trkpt lat="34.904056" lon="138.320410">
 <ele>462.7</ele>
 <time>2020-03-24T16:35:08Z</time>
</trkpt>
<trkpt lat="34.903875" lon="138.320420">
 <ele>456.5</ele>
 <time>2020-03-24T16:35:08Z</time>
</trkpt>
<trkpt lat="34.903618" lon="138.320388">
 <ele>447.2</ele>
 <time>2020-03-24T16:35:08Z</time>
</trkpt>
<trkpt lat="34.903532" lon="138.320302">
 <ele>443.9</ele>
 <time>2020-03-24T16:35:08Z</time>
</trkpt>
<trkpt lat="34.903378" lon="138.320184">
 <ele>436.2</ele>
 <time>2020-03-24T16:35:08Z</time>
</trkpt>
<trkpt lat="34.903180" lon="138.320066">
 <ele>429.9</ele>
 <time>2020-03-24T16:35:08Z</time>
</trkpt>
<trkpt lat="34.902974" lon="138.319959">
 <ele>420.4</ele>
 <time>2020-03-24T16:35:08Z</time>
</trkpt>
<trkpt lat="34.902768" lon="138.319852">
 <ele>413.5</ele>
 <time>2020-03-24T16:35:09Z</time>
</trkpt>
<trkpt lat="34.902597" lon="138.319712">
 <ele>408.4</ele>
 <time>2020-03-24T16:35:09Z</time>
</trkpt>
<trkpt lat="34.902485" lon="138.319680">
 <ele>405.8</ele>
 <time>2020-03-24T16:35:09Z</time>
</trkpt>
<trkpt lat="34.902330" lon="138.319616">
 <ele>397.9</ele>
 <time>2020-03-24T16:35:09Z</time>
</trkpt>
<trkpt lat="34.902185" lon="138.319551">
 <ele>392.8</ele>
 <time>2020-03-24T16:35:09Z</time>
</trkpt>
<trkpt lat="34.902021" lon="138.319412">
 <ele>384.9</ele>
 <time>2020-03-24T16:35:09Z</time>
</trkpt>
<trkpt lat="34.901876" lon="138.319229">
 <ele>379.4</ele>
 <time>2020-03-24T16:35:09Z</time>
</trkpt>
<trkpt lat="34.901738" lon="138.319133">
 <ele>377.2</ele>
 <time>2020-03-24T16:35:09Z</time>
</trkpt>
<trkpt lat="34.901609" lon="138.318983">
 <ele>371.7</ele>
 <time>2020-03-24T16:35:09Z</time>
</trkpt>
<trkpt lat="34.901498" lon="138.318865">
 <ele>369</ele>
 <time>2020-03-24T16:35:09Z</time>
</trkpt>
<trkpt lat="34.901386" lon="138.318832">
 <ele>367.3</ele>
 <time>2020-03-24T16:35:10Z</time>
</trkpt>
<trkpt lat="34.901129" lon="138.318671">
 <ele>353.3</ele>
 <time>2020-03-24T16:35:10Z</time>
</trkpt>
<trkpt lat="34.901009" lon="138.318650">
 <ele>347.9</ele>
 <time>2020-03-24T16:35:10Z</time>
</trkpt>
<trkpt lat="34.900828" lon="138.318639">
 <ele>338.3</ele>
 <time>2020-03-24T16:35:10Z</time>
</trkpt>
<trkpt lat="34.900691" lon="138.318607">
 <ele>331.8</ele>
 <time>2020-03-24T16:35:10Z</time>
</trkpt>
<trkpt lat="34.900700" lon="138.318511">
 <ele>328</ele>
 <time>2020-03-24T16:35:10Z</time>
</trkpt>
<trkpt lat="34.900579" lon="138.318511">
 <ele>323.4</ele>
 <time>2020-03-24T16:35:10Z</time>
</trkpt>
<trkpt lat="34.900562" lon="138.318446">
 <ele>320.2</ele>
 <time>2020-03-24T16:35:10Z</time>
</trkpt>
<trkpt lat="34.900511" lon="138.318382">
 <ele>315.9</ele>
 <time>2020-03-24T16:35:10Z</time>
</trkpt>
<trkpt lat="34.900434" lon="138.318339">
 <ele>310.7</ele>
 <time>2020-03-24T16:35:10Z</time>
</trkpt>
<trkpt lat="34.900331" lon="138.318285">
 <ele>304.5</ele>
 <time>2020-03-24T16:35:11Z</time>
</trkpt>
<trkpt lat="34.900228" lon="138.318210">
 <ele>296.9</ele>
 <time>2020-03-24T16:35:11Z</time>
</trkpt>
<trkpt lat="34.900202" lon="138.318114">
 <ele>293.8</ele>
 <time>2020-03-24T16:35:11Z</time>
</trkpt>
<trkpt lat="34.900090" lon="138.318156">
 <ele>288.1</ele>
 <time>2020-03-24T16:35:11Z</time>
</trkpt>
<trkpt lat="34.899996" lon="138.318071">
 <ele>278.8</ele>
 <time>2020-03-24T16:35:11Z</time>
</trkpt>
<trkpt lat="34.899919" lon="138.318092">
 <ele>274.2</ele>
 <time>2020-03-24T16:35:11Z</time>
</trkpt>
<trkpt lat="34.899773" lon="138.318146">
 <ele>264.3</ele>
 <time>2020-03-24T16:35:11Z</time>
</trkpt>
<trkpt lat="34.899541" lon="138.318124">
 <ele>253.7</ele>
 <time>2020-03-24T16:35:11Z</time>
</trkpt>
<trkpt lat="34.899438" lon="138.318199">
 <ele>253</ele>
 <time>2020-03-24T16:35:11Z</time>
</trkpt>
<trkpt lat="34.899318" lon="138.318317">
 <ele>251.6</ele>
 <time>2020-03-24T16:35:12Z</time>
</trkpt>
<trkpt lat="34.899172" lon="138.318714">
 <ele>250.2</ele>
 <time>2020-03-24T16:35:12Z</time>
</trkpt>
<trkpt lat="34.899206" lon="138.318907">
 <ele>248.5</ele>
 <time>2020-03-24T16:35:12Z</time>
</trkpt>
<trkpt lat="34.899326" lon="138.319111">
 <ele>247.5</ele>
 <time>2020-03-24T16:35:12Z</time>
</trkpt>
<trkpt lat="34.899532" lon="138.319465">
 <ele>240.9</ele>
 <time>2020-03-24T16:35:12Z</time>
</trkpt>
<trkpt lat="34.899670" lon="138.319551">
 <ele>242.7</ele>
 <time>2020-03-24T16:35:12Z</time>
</trkpt>
<trkpt lat="34.899661" lon="138.319616">
 <ele>242.9</ele>
 <time>2020-03-24T16:35:12Z</time>
</trkpt>
<trkpt lat="34.899575" lon="138.319669">
 <ele>241.6</ele>
 <time>2020-03-24T16:35:12Z</time>
</trkpt>
<trkpt lat="34.899395" lon="138.319777">
 <ele>243.5</ele>
 <time>2020-03-24T16:35:12Z</time>
</trkpt>
<trkpt lat="34.899129" lon="138.320002">
 <ele>240.5</ele>
 <time>2020-03-24T16:35:13Z</time>
</trkpt>
<trkpt lat="34.899026" lon="138.320195">
 <ele>239.1</ele>
 <time>2020-03-24T16:35:13Z</time>
</trkpt>
<trkpt lat="34.898932" lon="138.320313">
 <ele>235.6</ele>
 <time>2020-03-24T16:35:13Z</time>
</trkpt>
<trkpt lat="34.898837" lon="138.320292">
 <ele>236.4</ele>
 <time>2020-03-24T16:35:13Z</time>
</trkpt>
<trkpt lat="34.898708" lon="138.320216">
 <ele>235.2</ele>
 <time>2020-03-24T16:35:13Z</time>
</trkpt>
<trkpt lat="34.898485" lon="138.320259">
 <ele>233.3</ele>
 <time>2020-03-24T16:35:13Z</time>
</trkpt>
<trkpt lat="34.898537" lon="138.320474">
 <ele>232.9</ele>
 <time>2020-03-24T16:35:13Z</time>
</trkpt>
<trkpt lat="34.898562" lon="138.320678">
 <ele>231.7</ele>
 <time>2020-03-24T16:35:13Z</time>
</trkpt>
<trkpt lat="34.898442" lon="138.320860">
 <ele>230.8</ele>
 <time>2020-03-24T16:35:13Z</time>
</trkpt>
<trkpt lat="34.898339" lon="138.321236">
 <ele>229.5</ele>
 <time>2020-03-24T16:35:13Z</time>
</trkpt>
<trkpt lat="34.898211" lon="138.321493">
 <ele>228.5</ele>
 <time>2020-03-24T16:35:14Z</time>
</trkpt>
<trkpt lat="34.898047" lon="138.321611">
 <ele>227.1</ele>
 <time>2020-03-24T16:35:14Z</time>
</trkpt>
<trkpt lat="34.898039" lon="138.321708">
 <ele>226.8</ele>
 <time>2020-03-24T16:35:14Z</time>
</trkpt>
<trkpt lat="34.898108" lon="138.321836">
 <ele>225.6</ele>
 <time>2020-03-24T16:35:14Z</time>
</trkpt>
<trkpt lat="34.898228" lon="138.321987">
 <ele>227.2</ele>
 <time>2020-03-24T16:35:14Z</time>
</trkpt>
<trkpt lat="34.898417" lon="138.322072">
 <ele>226.9</ele>
 <time>2020-03-24T16:35:14Z</time>
</trkpt>
<trkpt lat="34.898674" lon="138.322137">
 <ele>227</ele>
 <time>2020-03-24T16:35:14Z</time>
</trkpt>
<trkpt lat="34.898743" lon="138.322244">
 <ele>224.8</ele>
 <time>2020-03-24T16:35:14Z</time>
</trkpt>
<trkpt lat="34.898717" lon="138.322362">
 <ele>225.8</ele>
 <time>2020-03-24T16:35:14Z</time>
</trkpt>
<trkpt lat="34.898502" lon="138.322512">
 <ele>225.2</ele>
 <time>2020-03-24T16:35:14Z</time>
</trkpt>
<trkpt lat="34.898236" lon="138.322684">
 <ele>220.6</ele>
 <time>2020-03-24T16:35:15Z</time>
</trkpt>
<trkpt lat="34.898030" lon="138.322748">
 <ele>215.8</ele>
 <time>2020-03-24T16:35:15Z</time>
</trkpt>
<trkpt lat="34.897910" lon="138.322931">
 <ele>214.2</ele>
 <time>2020-03-24T16:35:15Z</time>
</trkpt>
<trkpt lat="34.897944" lon="138.323113">
 <ele>211.8</ele>
 <time>2020-03-24T16:35:15Z</time>
</trkpt>
<trkpt lat="34.898030" lon="138.323381">
 <ele>207.4</ele>
 <time>2020-03-24T16:35:15Z</time>
</trkpt>
<trkpt lat="34.898142" lon="138.323521">
 <ele>207.1</ele>
 <time>2020-03-24T16:35:15Z</time>
</trkpt>
<trkpt lat="34.898271" lon="138.323585">
 <ele>205.5</ele>
 <time>2020-03-24T16:35:15Z</time>
</trkpt>
<trkpt lat="34.898236" lon="138.323682">
 <ele>204.5</ele>
 <time>2020-03-24T16:35:15Z</time>
</trkpt>
<trkpt lat="34.898099" lon="138.323671">
 <ele>201.7</ele>
 <time>2020-03-24T16:35:15Z</time>
</trkpt>
<trkpt lat="34.897962" lon="138.323521">
 <ele>199.6</ele>
 <time>2020-03-24T16:35:16Z</time>
</trkpt>
<trkpt lat="34.897764" lon="138.323263">
 <ele>198.3</ele>
 <time>2020-03-24T16:35:16Z</time>
</trkpt>
<trkpt lat="34.897653" lon="138.323274">
 <ele>194.3</ele>
 <time>2020-03-24T16:35:16Z</time>
</trkpt>
<trkpt lat="34.897799" lon="138.323467">
 <ele>192.2</ele>
 <time>2020-03-24T16:35:16Z</time>
</trkpt>
<trkpt lat="34.898013" lon="138.323811">
 <ele>189.2</ele>
 <time>2020-03-24T16:35:16Z</time>
</trkpt>
<trkpt lat="34.898314" lon="138.324090">
 <ele>187.4</ele>
 <time>2020-03-24T16:35:16Z</time>
</trkpt>
<trkpt lat="34.898477" lon="138.324068">
 <ele>185.5</ele>
 <time>2020-03-24T16:35:16Z</time>
</trkpt>
<trkpt lat="34.898717" lon="138.324036">
 <ele>183</ele>
 <time>2020-03-24T16:35:16Z</time>
</trkpt>
<trkpt lat="34.898906" lon="138.324143">
 <ele>181.4</ele>
 <time>2020-03-24T16:35:16Z</time>
</trkpt>
<trkpt lat="34.899215" lon="138.324390">
 <ele>181.3</ele>
 <time>2020-03-24T16:35:16Z</time>
</trkpt>
<trkpt lat="34.899361" lon="138.324712">
 <ele>177.6</ele>
 <time>2020-03-24T16:35:17Z</time>
</trkpt>
<trkpt lat="34.899455" lon="138.324894">
 <ele>176</ele>
 <time>2020-03-24T16:35:17Z</time>
</trkpt>
<trkpt lat="34.899498" lon="138.325066">
 <ele>174.5</ele>
 <time>2020-03-24T16:35:17Z</time>
</trkpt>
<trkpt lat="34.899498" lon="138.325313">
 <ele>171.7</ele>
 <time>2020-03-24T16:35:17Z</time>
</trkpt>
<trkpt lat="34.899687" lon="138.325420">
 <ele>170</ele>
 <time>2020-03-24T16:35:17Z</time>
</trkpt>
<trkpt lat="34.899756" lon="138.325527">
 <ele>167.7</ele>
 <time>2020-03-24T16:35:17Z</time>
</trkpt>
<trkpt lat="34.899653" lon="138.325602">
 <ele>164.9</ele>
 <time>2020-03-24T16:35:17Z</time>
</trkpt>
<trkpt lat="34.899369" lon="138.325527">
 <ele>163.4</ele>
 <time>2020-03-24T16:35:17Z</time>
</trkpt>
<trkpt lat="34.899112" lon="138.325366">
 <ele>159.4</ele>
 <time>2020-03-24T16:35:17Z</time>
</trkpt>
<trkpt lat="34.899077" lon="138.325238">
 <ele>158.1</ele>
 <time>2020-03-24T16:35:17Z</time>
</trkpt>
<trkpt lat="34.898992" lon="138.325184">
 <ele>156.2</ele>
 <time>2020-03-24T16:35:18Z</time>
</trkpt>
<trkpt lat="34.898940" lon="138.325302">
 <ele>153.1</ele>
 <time>2020-03-24T16:35:18Z</time>
</trkpt>
<trkpt lat="34.899017" lon="138.325441">
 <ele>151.3</ele>
 <time>2020-03-24T16:35:18Z</time>
</trkpt>
<trkpt lat="34.899189" lon="138.325677">
 <ele>147.8</ele>
 <time>2020-03-24T16:35:18Z</time>
</trkpt>
<trkpt lat="34.899361" lon="138.325860">
 <ele>141.8</ele>
 <time>2020-03-24T16:35:18Z</time>
</trkpt>
<trkpt lat="34.899258" lon="138.325924">
 <ele>138.8</ele>
 <time>2020-03-24T16:35:18Z</time>
</trkpt>
<trkpt lat="34.899120" lon="138.325849">
 <ele>137.6</ele>
 <time>2020-03-24T16:35:18Z</time>
</trkpt>
<trkpt lat="34.898966" lon="138.325731">
 <ele>134.6</ele>
 <time>2020-03-24T16:35:18Z</time>
</trkpt>
<trkpt lat="34.898820" lon="138.325785">
 <ele>131.7</ele>
 <time>2020-03-24T16:35:18Z</time>
</trkpt>
<trkpt lat="34.898683" lon="138.325860">
 <ele>128.9</ele>
 <time>2020-03-24T16:35:19Z</time>
</trkpt>
<trkpt lat="34.898657" lon="138.325688">
 <ele>126.5</ele>
 <time>2020-03-24T16:35:19Z</time>
</trkpt>
<trkpt lat="34.898614" lon="138.325592">
 <ele>126.5</ele>
 <time>2020-03-24T16:35:19Z</time>
</trkpt>
<trkpt lat="34.898520" lon="138.325720">
 <ele>122.5</ele>
 <time>2020-03-24T16:35:19Z</time>
</trkpt>
<trkpt lat="34.898477" lon="138.325946">
 <ele>120.5</ele>
 <time>2020-03-24T16:35:19Z</time>
</trkpt>
<trkpt lat="34.898502" lon="138.326074">
 <ele>119.9</ele>
 <time>2020-03-24T16:35:19Z</time>
</trkpt>
<trkpt lat="34.898605" lon="138.326278">
 <ele>116.7</ele>
 <time>2020-03-24T16:35:19Z</time>
</trkpt>
<trkpt lat="34.898734" lon="138.326321">
 <ele>115.1</ele>
 <time>2020-03-24T16:35:19Z</time>
</trkpt>
<trkpt lat="34.899000" lon="138.326321">
 <ele>111.8</ele>
 <time>2020-03-24T16:35:19Z</time>
</trkpt>
<trkpt lat="34.899361" lon="138.326332">
 <ele>107.6</ele>
 <time>2020-03-24T16:35:19Z</time>
</trkpt>
<trkpt lat="34.899421" lon="138.326396">
 <ele>110.4</ele>
 <time>2020-03-24T16:35:20Z</time>
</trkpt>
<trkpt lat="34.899361" lon="138.326471">
 <ele>104</ele>
 <time>2020-03-24T16:35:20Z</time>
</trkpt>
<trkpt lat="34.899172" lon="138.326450">
 <ele>102.9</ele>
 <time>2020-03-24T16:35:20Z</time>
</trkpt>
<trkpt lat="34.898949" lon="138.326568">
 <ele>99.3</ele>
 <time>2020-03-24T16:35:20Z</time>
</trkpt>
<trkpt lat="34.898897" lon="138.326761">
 <ele>95.6</ele>
 <time>2020-03-24T16:35:20Z</time>
</trkpt>
<trkpt lat="34.898949" lon="138.327018">
 <ele>92.1</ele>
 <time>2020-03-24T16:35:20Z</time>
</trkpt>
<trkpt lat="34.898966" lon="138.327351">
 <ele>88</ele>
 <time>2020-03-24T16:35:20Z</time>
</trkpt>
<trkpt lat="34.898906" lon="138.327641">
 <ele>84.8</ele>
 <time>2020-03-24T16:35:20Z</time>
</trkpt>
<trkpt lat="34.898811" lon="138.327866">
 <ele>82.6</ele>
 <time>2020-03-24T16:35:20Z</time>
</trkpt>
<trkpt lat="34.898665" lon="138.328059">
 <ele>79.8</ele>
 <time>2020-03-24T16:35:21Z</time>
</trkpt>
<trkpt lat="34.898485" lon="138.328124">
 <ele>76.7</ele>
 <time>2020-03-24T16:35:21Z</time>
</trkpt>
<trkpt lat="34.898219" lon="138.328199">
 <ele>72.7</ele>
 <time>2020-03-24T16:35:21Z</time>
</trkpt>
<trkpt lat="34.898056" lon="138.327909">
 <ele>68.4</ele>
 <time>2020-03-24T16:35:21Z</time>
</trkpt>
<trkpt lat="34.897944" lon="138.327930">
 <ele>66</ele>
 <time>2020-03-24T16:35:21Z</time>
</trkpt>
<trkpt lat="34.897747" lon="138.328199">
 <ele>64.2</ele>
 <time>2020-03-24T16:35:21Z</time>
</trkpt>
<trkpt lat="34.897919" lon="138.328639">
 <ele>64.5</ele>
 <time>2020-03-24T16:35:21Z</time>
</trkpt>
<trkpt lat="34.898030" lon="138.328971">
 <ele>60.4</ele>
 <time>2020-03-24T16:35:21Z</time>
</trkpt>
<trkpt lat="34.898185" lon="138.328971">
 <ele>59.1</ele>
 <time>2020-03-24T16:35:21Z</time>
</trkpt>
<trkpt lat="34.898434" lon="138.328778">
 <ele>52.9</ele>
 <time>2020-03-24T16:35:22Z</time>
</trkpt>
<trkpt lat="34.898597" lon="138.328778">
 <ele>50.3</ele>
 <time>2020-03-24T16:35:22Z</time>
</trkpt>
<trkpt lat="34.898811" lon="138.328724">
 <ele>47.1</ele>
 <time>2020-03-24T16:35:22Z</time>
</trkpt>
<trkpt lat="34.899189" lon="138.328746">
 <ele>40.5</ele>
 <time>2020-03-24T16:35:22Z</time>
</trkpt>
<trkpt lat="34.899472" lon="138.328767">
 <ele>37.3</ele>
 <time>2020-03-24T16:35:22Z</time>
</trkpt>
<trkpt lat="34.899807" lon="138.328853">
 <ele>34.6</ele>
 <time>2020-03-24T16:35:22Z</time>
</trkpt>
<trkpt lat="34.900013" lon="138.328950">
 <ele>33.2</ele>
 <time>2020-03-24T16:35:22Z</time>
</trkpt>
<trkpt lat="34.900296" lon="138.329036">
 <ele>31.6</ele>
 <time>2020-03-24T16:35:22Z</time>
</trkpt>
<trkpt lat="34.900854" lon="138.329164">
 <ele>29.1</ele>
 <time>2020-03-24T16:35:22Z</time>
</trkpt>
<trkpt lat="34.901352" lon="138.329390">
 <ele>27.9</ele>
 <time>2020-03-24T16:35:22Z</time>
</trkpt>
<trkpt lat="34.901670" lon="138.329583">
 <ele>28.1</ele>
 <time>2020-03-24T16:35:23Z</time>
</trkpt>
<trkpt lat="34.901764" lon="138.329754">
 <ele>27.6</ele>
 <time>2020-03-24T16:35:23Z</time>
</trkpt>
<trkpt lat="34.901403" lon="138.329851">
 <ele>25.7</ele>
 <time>2020-03-24T16:35:23Z</time>
</trkpt>
<trkpt lat="34.901197" lon="138.329990">
 <ele>24.9</ele>
 <time>2020-03-24T16:35:23Z</time>
</trkpt>
<trkpt lat="34.900906" lon="138.330237">
 <ele>23.8</ele>
 <time>2020-03-24T16:35:23Z</time>
</trkpt>
<trkpt lat="34.900640" lon="138.330505">
 <ele>23.6</ele>
 <time>2020-03-24T16:35:23Z</time>
</trkpt>
<trkpt lat="34.900502" lon="138.330774">
 <ele>23.5</ele>
 <time>2020-03-24T16:35:23Z</time>
</trkpt>
<trkpt lat="34.900451" lon="138.331063">
 <ele>21.9</ele>
 <time>2020-03-24T16:35:23Z</time>
</trkpt>
<trkpt lat="34.900416" lon="138.331417">
 <ele>21.3</ele>
 <time>2020-03-24T16:35:23Z</time>
</trkpt>
<trkpt lat="34.900391" lon="138.331610">
 <ele>20.8</ele>
 <time>2020-03-24T16:35:24Z</time>
</trkpt>
<trkpt lat="34.900279" lon="138.331857">
 <ele>20.5</ele>
 <time>2020-03-24T16:35:24Z</time>
</trkpt>
<trkpt lat="34.900176" lon="138.332201">
 <ele>19.6</ele>
 <time>2020-03-24T16:35:24Z</time>
</trkpt>
</trkseg>
</trk>
</gpx>

